Location: Starlight Observatory
(38.4029°N, 85.8936°W)
Time: 10:09:54
(UTC-04:00)

Iridium 84 - Visible Passes

Search period start: 01 September 2015 00:00
Search period end: 11 September 2015 00:00
Orbit: 776 x 779 km, 86.4° (Epoch: 31 August)

Date Brightness Start Highest point End Pass type
(mag) Time Alt. Az. Time Alt. Az. Time Alt. Az.
01 Sep 8.0 21:40:37 10° SW 21:44:50 24° WNW 21:48:58 10° NNW visible
02 Sep 6.8 21:06:07 10° SSW 21:11:05 44° W 21:16:03 10° NNW visible
03 Sep 5.7 20:32:16 10° S 20:37:29 84° W 20:42:44 10° N visible
04 Sep 8.5 21:41:48 10° WSW 21:45:10 17° WNW 21:48:19 10° NW visible
05 Sep 9.2 06:32:34 10° NE 06:34:41 13° ENE 06:37:07 10° E visible
05 Sep 7.6 21:06:43 10° SW 21:11:18 30° W 21:15:51 10° NNW visible
06 Sep 6.4 20:32:30 10° SSW 20:37:37 57° W 20:42:45 10° N visible
07 Sep 9.0 21:43:58 10° W 21:45:34 11° WNW 21:46:49 10° WNW visible
08 Sep 8.7 06:31:32 10° NNE 06:35:04 19° ENE 06:38:47 10° ESE visible
08 Sep 8.4 21:07:37 10° SW 21:11:35 21° WNW 21:15:26 10° NNW visible
09 Sep 7.2 20:32:56 10° SSW 20:37:48 38° W 20:42:39 10° NNW visible
